HST 1 20580U 90037B 26103.84493882 .00004052 00000+0 12781-3 0 9994 2 20580 28.4729 160.0795 0002273 147.2593 212.8144 15.30041364778700 POLAR 1 23802U 96013A 26103.33818853 .00000113 00000+0 00000+0 0 9998 2 23802 79.7901 227.7998 6405301 211.2964 86.0174 1.29845761144017 SWAS 1 25560U 98071A 26104.19708416 .00002436 00000+0 15952-3 0 9991 2 25560 69.8974 32.4798 0006635 324.0110 36.0607 15.09179038487618 CXO 1 25867U 99040B 26105.90737653 .00000932 00000+0 00000+0 0 9996 2 25867 55.1609 118.4976 7943121 310.5395 0.1381 0.37807016 17086 XMM-NEWTON 1 25989U 99066A 26105.52041533 .00000139 00000+0 00000+0 0 9991 2 25989 64.8079 283.7888 4696661 66.0314 0.0348 0.50125345 22690 TERRA 1 25994U 99068A 26104.18803956 .00000233 00000+0 56403-4 0 9993 2 25994 97.9521 156.2534 0003598 79.8342 326.8783 14.61052398400266 CLUSTER II-FM7 (SAMBA) 1 26410U 00041A 26103.42847287 .00002693 00000+0 00000+0 0 9990 2 26410 149.4965 39.9054 8971645 256.3507 0.6187 0.44801462 20015 CLUSTER II-FM8 (TANGO) 1 26464U 00045B 26105.37029088 .00002607 00000+0 00000+0 0 9995 2 26464 149.8154 41.2510 8981499 257.5394 0.5870 0.44407628 20010 ODIN 1 26702U 01007A 26103.61279762 .00025544 00000+0 29175-3 0 9993 2 26702 97.4002 141.1692 0003684 67.9289 292.2360 15.62174783379284 TIMED 1 26998U 01055B 26104.17747009 .00000839 00000+0 80038-4 0 9995 2 26998 74.0697 3.8891 0002270 228.6005 131.4984 14.95146436321258 CORIOLIS 1 27640U 03001A 26103.58042054 .00000088 00000+0 61701-4 0 9997 2 27640 98.7152 111.4470 0014772 42.8061 317.4263 14.19926465205058 SORCE 1 27651U 03004A 26104.17530728 .00001725 00000+0 13534-3 0 9997 2 27651 39.9905 266.7899 0018286 309.8822 50.0364 15.03365860262265 MOST 1 27843U 03031D 26104.00919800 .00000049 00000+0 42454-4 0 9996 2 27843 98.7072 112.6258 0010982 79.2840 280.9573 14.21309032181597 SCISAT 1 1 27858U 03036A 26103.93587022 .00000379 00000+0 53187-4 0 9996 2 27858 73.9288 298.9965 0006889 8.4136 351.7155 14.81373855221939 SWIFT 1 28485U 04047A 26103.75783160 .00032045 00000+0 33211-3 0 9997 2 28485 20.5539 319.6593 0002466 115.3727 244.6973 15.62679873176758 HINODE (SOLAR-B) 1 29479U 06041A 26104.00309763 .00000384 00000+0 74449-4 0 9999 2 29479 98.0592 121.0949 0018664 129.0526 231.2344 14.68531713 45458 SHIJIAN-6 02A (SJ-6 02A) 1 29505U 06046A 26104.15663484 .00003117 00000+0 16480-3 0 9990 2 29505 97.6439 144.7575 0003452 32.5786 327.5659 15.16230065 62564 SHIJIAN-6 02B (SJ-6 02B) 1 29506U 06046B 26104.22765463 .00001330 00000+0 10834-3 0 9991 2 29506 97.7125 133.6953 0011537 284.7097 75.2848 15.01174137 61145 FGRST (GLAST) 1 33053U 08029A 26104.18332044 .00002252 00000+0 77802-4 0 9999 2 33053 25.5825 288.7732 0007796 293.3826 66.5892 15.23602090986065 SDO 1 36395U 10005A 26102.41844348 -.00000038 00000+0 00000+0 0 9999 2 36395 34.5141 87.3349 0000480 33.1705 128.9991 1.00273674 59408 CRYOSAT 2 1 36508U 10013A 26104.19258716 .00000101 00000+0 24376-4 0 9996 2 36508 92.0270 261.7762 0002546 95.8364 264.3134 14.51902421848795 X-SAT 1 37389U 11015C 26104.19773183 .00000168 00000+0 89025-4 0 9992 2 37389 98.3471 84.2862 0014119 165.8842 194.2736 14.25187440778565 GCOM-W1 (SHIZUKU) 1 38337U 12025A 26104.09172138 .00000313 00000+0 79559-4 0 9993 2 38337 98.2097 45.6331 0001128 82.5298 288.1921 14.57148808739702 NUSTAR 1 38358U 12031A 26104.16668980 .00007816 00000+0 43646-3 0 9998 2 38358 6.0249 154.1359 0008790 240.4675 71.0140 15.08185433 2632 NEOSSAT 1 39089U 13009D 26103.47028830 .00000131 00000+0 59877-4 0 9990 2 39089 98.4165 285.0448 0012197 80.7952 279.4613 14.35803516687454 BRITE-AUSTRIA 1 39091U 13009F 26103.98859765 .00000119 00000+0 55088-4 0 9994 2 39091 98.3981 285.0169 0011353 74.1753 286.0684 14.36516147687837 IRIS 1 39197U 13033A 26103.51442383 .00000749 00000+0 92171-4 0 9994 2 39197 97.9379 302.9831 0024738 167.4951 192.6883 14.85750870690779 HISAKI (SPRINT-A) 1 39253U 13049A 26104.20125612 .00000126 00000+0 79157-4 0 9992 2 39253 29.7188 185.3170 0136543 218.1606 140.9230 13.55536137622738 CASSIOPE 1 39265U 13055A 26104.16463661 .00017331 -44399-6 20350-3 0 9999 2 39265 80.9157 144.2047 0304745 277.3311 79.3383 15.21270471657928 STSAT-3 1 39422U 13066G 26104.18162101 .00001659 00000+0 12979-3 0 9990 2 39422 97.6173 75.1540 0008114 241.7406 118.3000 15.02394167674597 SWARM B 1 39451U 13067A 26104.16440397 .00002167 00000+0 77658-4 0 9998 2 39451 87.7498 1.7489 0002514 80.6296 279.5237 15.28178957673463 SWARM A 1 39452U 13067B 26104.18577495 .00006736 00000+0 12108-3 0 9995 2 39452 87.3290 79.9897 0003673 93.6026 266.5655 15.49627710696332 SWARM C 1 39453U 13067C 26104.18571588 .00006768 00000+0 12167-3 0 9993 2 39453 87.3291 78.5708 0003699 93.8089 266.3594 15.49626418696298 BRITE-CA1 (TORONTO) 1 40020U 14033L 26104.10015615 .00000745 00000+0 11925-3 0 9995 2 40020 97.9633 234.2506 0079958 121.6828 239.2209 14.72576516632780 OCO 2 1 40059U 14035A 26104.15512512 .00000250 00000+0 65373-4 0 9990 2 40059 98.1975 46.4401 0001646 86.0699 274.0688 14.57136476626725 BRITE-PL2 (HEWELIUSZ) 1 40119U 14049B 26104.23062190 .00000953 00000+0 93971-4 0 9998 2 40119 97.9017 215.7767 0013179 326.3617 33.6765 14.94357720631893 MMS 1 1 40482U 15011A 26104.16668980 -.00000750 00000+0 00000+0 0 9994 2 40482 71.4655 349.6040 8382674 166.0930 247.4404 0.28327067 1312 MMS 2 1 40483U 15011B 26104.16668980 -.00000750 00000+0 00000+0 0 9995 2 40483 71.4635 349.6059 8383230 166.0960 247.4335 0.28325138 1313 MMS 3 1 40484U 15011C 26104.16668980 -.00000750 00000+0 00000+0 0 9996 2 40484 71.4661 349.6105 8382471 166.0903 247.4373 0.28325108 1317 MMS 4 1 40485U 15011D 26104.16668980 -.00000750 00000+0 00000+0 0 9997 2 40485 71.4634 349.6060 8382015 166.0978 247.4245 0.28325119 1314 ASTROSAT 1 40930U 15052A 26104.04458961 .00001376 00000+0 86080-4 0 9991 2 40930 5.9972 257.0249 0008113 202.9651 157.0114 14.82393548570296 DAMPE 1 41173U 15078A 26104.23493089 .00000826 00000+0 30490-4 0 9993 2 41173 97.4581 109.3918 0010733 309.4910 50.5380 15.30625283574768 PISAT 1 41784U 16059B 26103.70425419 .00000729 00000+0 13195-3 0 9998 2 41784 97.8192 106.9328 0030280 53.4627 306.9360 14.68864866510270 HXMT (HUIYAN) 1 42758U 17034A 26104.25072324 .00002681 00000+0 14006-3 0 9999 2 42758 43.0133 178.8963 0030351 99.9540 260.4736 15.17923410487945 FLYING LAPTOP 1 42831U 17042G 26104.18514775 .00001781 00000+0 14446-3 0 9991 2 42831 97.4397 262.3113 0019115 343.8756 16.1858 15.00753411476856 ZHANGHENG 1-01 (CSES-1) 1 43194U 18015C 26104.18455644 .00005164 00000+0 23432-3 0 9998 2 43194 97.6807 268.5913 0019030 116.8309 243.4875 15.21110695454912 SALSAT 1 46495U 20068K 26103.56539140 .00004439 00000+0 16112-3 0 9992 2 46495 97.8865 102.7460 0010532 159.4430 200.7234 15.28855640305482 IXPE 1 49954U 21121A 26104.16668980 .00009640 00000+0 52550-3 0 9993 2 49954 0.2291 81.0870 0007296 189.0201 356.4268 15.09661855 5720